#timestamp,LO_Frequency,Hit,StdDev 
1619935215.7,286047007.1,N
1619935235.5,286047010.7,N
1619935255.3,286047007.2,N
1619935275.2,286047008.0,N
1619935295.0,286047011.1,Y
1619935295.9,286047011.1,P
1619935315.7,286047000.0,N
1619935335.6,286046999.0,N
1619935355.4,286046997.2,N
1619935375.3,286046995.7,N
1619935395.1,286046997.7,N
1619935396.0,286046997.7,N
1619935415.8,286046996.8,N
1619935435.7,286046996.2,N
1619935455.5,286046995.8,N
1619935475.4,286046998.2,N
1619935495.2,286046998.5,N
1619935515.0,286046999.3,N
1619935515.9,286046999.3,N
1619935535.8,286046994.7,N
1619935555.6,286046994.6,N
1619935575.4,286046993.6,N
1619935595.3,286046996.3,N
1619935615.1,286047001.1,N
1619935635.9,286046999.3,N
1619935655.7,286046996.3,N
1619935675.5,286046993.9,N
1619935695.4,286046988.6,N
1619935715.2,286046990.7,N
1619935735.0,286046988.6,N
1619935735.9,286046988.6,N
1619935755.8,286046990.7,N
1619935775.6,286046991.4,N
1619935795.5,286046994.2,N
1619935815.3,286046991.7,N
1619935835.1,286046995.7,N
1619935855.9,286046993.8,N
1619935875.7,286046995.5,N
1619935895.6,286047005.9,N
1619935915.4,286047001.5,N
1619935935.2,286046998.4,N
1619935955.1,286046999.4,N
1619935956.0,286046999.4,N
1619935975.8,286047000.5,N
1619935995.6,286047003.1,N
1619936015.5,286046999.8,N
1619936035.3,286046999.8,N
1619936055.2,286047004.8,N
1619936075.9,286047004.2,N
1619936095.7,286047000.1,N
1619936115.6,286047002.8,N
1619936135.4,286047002.3,N
1619936155.2,286047008.0,N
1619936175.1,286047004.9,N
1619936176.0,286047004.9,N
1619936195.8,286047006.7,N
1619936215.7,286047003.1,N
1619936235.5,286047004.2,N
1619936255.3,286047008.5,N
1619936275.2,286047011.0,N
1619936295.0,286047010.7,N
1619936295.9,286047010.7,N
1619936315.8,286047007.8,N
1619936335.6,286047003.0,N
1619936355.4,286047011.9,N
1619936375.3,286047004.1,N
1619936395.1,286047002.9,N
1619936415.8,286047004.1,N
1619936435.7,286047004.1,N
1619936455.5,286047005.0,N
1619936475.4,286047007.2,N
1619936495.2,286047004.9,N
1619936515.0,286047003.7,N
1619936515.9,286047003.7,N
1619936535.8,286047005.5,N
1619936555.6,286047005.2,N
1619936575.5,286047002.1,N
1619936595.3,286046998.3,N
1619936615.1,286047001.2,N
1619936635.9,286046999.3,N
1619936655.7,286046996.4,N
1619936675.5,286046993.6,N
1619936695.4,286046994.1,N
1619936715.2,286046992.3,N
1619936735.1,286046991.8,N
1619936736.0,286046991.8,N
1619936755.8,286046996.0,N
1619936775.6,286046997.8,N
1619936795.5,286046995.6,N
1619936815.3,286046995.2,N
1619936835.1,286046998.0,N
1619936855.9,286046995.8,N
1619936875.7,286046996.2,N
1619936895.6,286046998.5,N
1619936915.4,286046999.5,N
1619936935.2,286046999.4,N
1619936955.1,286046998.5,N
1619936956.0,286046998.5,N
1619936975.8,286047000.6,N
1619936995.7,286047002.8,N
1619937015.5,286047002.6,N
1619937035.3,286047001.4,N
1619937055.2,286047005.6,N
1619937075.0,286047005.3,N
1619937075.9,286047005.3,N
1619937095.7,286047006.8,N
1619937115.6,286047003.2,N
1619937135.4,286047005.6,N
1619937155.3,286047006.0,N
1619937175.1,286047004.8,N
1619937176.0,286047004.8,N
1619937195.8,286047009.9,N
1619937215.7,286047007.9,N
1619937235.5,286047004.6,N
1619937255.3,286047005.0,N
1619937275.2,286047004.8,N
1619937295.0,286047004.6,N
1619937295.9,286047004.6,N
1619937315.8,286047006.1,N
1619937335.6,286047009.6,N
1619937355.4,286047015.6,Y
1619937375.3,286047007.9,P
1619937395.1,286047010.7,P
1619937415.9,286047011.8,P
1619937435.7,286047010.4,Y
1619937455.5,286047001.1,P
1619937475.4,286047001.6,N
1619937495.2,286047004.4,N
1619937515.0,286046999.8,N
1619937515.9,286046999.8,N
1619937535.8,286047000.8,N
1619937555.6,286046998.6,N
1619937575.5,286047000.1,N
1619937595.3,286047002.3,N
1619937615.1,286047002.5,N
1619937635.9,286047002.0,N
1619937655.7,286047004.1,N
1619937675.5,286047004.2,N
1619937695.4,286047002.1,N
1619937715.2,286047003.3,N
1619937735.1,286047004.6,N
1619937736.0,286047004.6,N
1619937755.8,286047007.1,Y
1619937775.6,286047002.4,P
1619937795.5,286047004.0,P
1619937815.3,286047003.9,P
1619937835.2,286047002.6,Y
1619937855.9,286046995.3,P
1619937875.7,286046992.7,N
1619937895.6,286046992.6,N
1619937915.4,286046993.0,N
1619937935.3,286046992.9,N
1619937955.1,286046991.5,N
1619937956.0,286046991.5,N
1619937975.8,286046986.8,Y
1619937995.7,286046992.3,P
1619938015.5,286046993.7,P
1619938035.3,286046995.4,P
1619938055.2,286046999.5,N
1619938075.0,286046995.8,N
1619938075.9,286046995.8,N
1619938095.8,286046992.3,Y
1619938115.6,286046995.0,P
1619938135.4,286046995.7,P
1619938155.3,286046995.0,P
1619938175.1,286046999.5,N
1619938195.9,286047007.3,Y
1619938215.7,286047005.3,P
1619938235.5,286047004.8,N
1619938255.4,286047010.7,N
1619938275.2,286047010.5,N
1619938295.0,286047011.1,N
1619938296.0,286047011.1,N
1619938315.8,286047011.7,N
1619938335.6,286047008.2,N
1619938355.5,286047008.6,N
1619938375.3,286047006.2,N
1619938395.1,286047006.3,N
1619938415.9,286047006.6,N
1619938435.7,286047009.6,N
1619938455.6,286047010.9,N
1619938475.4,286047012.3,Y
1619938495.2,286047003.0,P
1619938515.1,286047003.2,N
1619938516.0,286047003.2,N
1619938535.8,286047006.0,N
1619938555.7,286046998.2,N
1619938575.5,286047000.9,N
1619938595.3,286046998.3,N
1619938615.2,286047002.2,N
1619938635.0,286047002.9,N
1619938635.9,286047002.9,N
1619938655.7,286047007.2,N
1619938675.6,286047007.3,N
1619938695.4,286047006.1,N
1619938715.3,286047002.9,N
1619938735.1,286047000.2,N
1619938736.0,286047011.9,Y
1619938755.8,286046995.4,P
1619938775.7,286046995.3,N
1619938795.5,286046995.8,N
